Regional Weather Roundup
Issued by NWS

Home | Current Version | Previous Version | Graphics & Text | Print | Product List | Glossary On
Versions: 1 2 3 4 5 6 7 8 9 10 11 12 13 14 15 16 17 18 19 20 21 22 23 24 25 26 27 28 29 30 31 32 33 34 35 36 37 38 39 40 41 42 43 44 45 46 47 48 49 50
000
ASUS43 KMPX 161510
RWRMN
WEATHER ROUNDUP FOR MINNESOTA
NATIONAL WEATHER SERVICE TWIN CITIES/CHANHASSEN MN
1000 AM CDT WED APR 16 2014


NOTE: "FAIR" INDICATES FEW OR NO CLOUDS BELOW 12,000 FEET WITH NO
SIGNIFICANT WEATHER AND/OR OBSTRUCTIONS TO VISIBILITY. N/A MEANS
CURRENT SKY AND/OR WEATHER CONDITIONS ARE NOT AVAILABLE.

MNZ060>063-068>070-161600-
   Twin Cities Metro

CITY           SKY/WX    TMP DP  RH WIND       PRES   REMARKS
TWIN CITIES    LGT SNOW  33  24  69 E21G26    29.95F WCI  21
ST PAUL        LGT SNOW  31  26  82 E10       29.98F VSB 1   WCI  22
CRYSTAL        LGT SNOW  31  27  85 E12       29.95F VSB 3/4 WCI  22
BLAINE         CLOUDY    32  30  93 E16G23    29.96F VSB 1   WCI  21
EDEN PRAIRIE   CLOUDY    34  28  80 E12       29.91F WCI  25
LAKEVILLE      CLOUDY    36  23  60 E16       29.91F
SOUTH ST PAUL  CLOUDY    37  24  60 E13       29.95F
LAKE ELMO      LGT SNOW  32  28  86 E13G20    29.99S WCI  22
$$
MNZ001>005-007-008-013>017-022>024-027-028-161600-
   Northwest Minnesota

CITY           SKY/WX    TMP DP  RH WIND       PRES   REMARKS
BEMIDJI        CLOUDY    32  11  41 E16       30.07S WCI  21
HALLOCK        CLOUDY    30  10  43 E13G20    30.17S WCI  20
ROSEAU         FAIR      28  10  47 E14       30.19S WCI  17
WARROAD        SUNNY     23  12  63 NE9       30.21R WCI  13
THIEF RVR FALL MOSUNNY   30   7  37 E16       30.11S WCI  19
CROOKSTON      PTSUNNY   34  10  37 E15       30.11R WCI  24
FOSSTON        CLOUDY    32  10  40 E17G23    30.06F WCI  21
DETROIT LAKES  MIX PCPN  28  23  80 E16       30.00S WCI  17
MOORHEAD       CLOUDY    28  25  86 E16G22    30.02S WCI  17
PARK RAPIDS    LGT SNOW  26  21  81 E13G22    30.02S WCI  15
$$
MNZ006-009>011-018-025>026-161600-
   North Central Minnesota

CITY           SKY/WX    TMP DP  RH WIND       PRES   REMARKS
BAUDETTE       SUNNY     28   6  39 E10       30.18S WCI  19
FLAG ISLAND    SUNNY     25   1  36 E7        30.22R WCI  17
INTL FALLS     SUNNY     27   3  35 E12       30.19S WCI  17
WASKISH        MOSUNNY   32   9  37 E12       30.14S WCI  23
BIG FORK       CLOUDY    30   7  37 E8        30.13S WCI  23
LONGVILLE      LGT SNOW  27  18  69 E6        30.07S WCI  20
GRAND RAPIDS   CLOUDY    27  16  63 E13G18    30.10S WCI  16
CRANE LAKE     MOSUNNY   30  16  55 CALM      30.22R
ORR            PTSUNNY   28   3  34 SE6       30.14S WCI  22
COOK           CLOUDY    27   9  46 E6        30.16S WCI  20
$$
MNZ012-019>021-037-161600-
   Northeast Minnesota

CITY           SKY/WX    TMP DP  RH WIND       PRES   REMARKS
DULUTH         LGT SNOW  26  16  65 E14       30.13S WCI  14
ELY            PTSUNNY   27  10  50 SE7       30.18R WCI  19
HIBBING        CLOUDY    31  10  41 E10       30.13S WCI  22
EVELETH        CLOUDY    32  12  43 E8        30.15S WCI  25
DULUTH HARBOR  FLURRIES  30  25  80 CALM      30.19S
TWO HARBORS    CLOUDY    28  12  50 E13       30.15S WCI  18
SILVER BAY     CLOUDY    27  18  69 NE10      30.18S WCI  17
GRAND MARAIS     N/A     30  14  51 E13       30.27R WCI  20
G MARAIS ARPRT PTSUNNY   25   7  46 E6        30.20R WCI  18
$$
MNZ029>031-032-039>041-046>048-054>057-064-161600-
   West Central Minnesota

CITY           SKY/WX    TMP DP  RH WIND       PRES   REMARKS
FERGUS FALLS   LGT SNOW  28  21  74 E24       29.93S WCI  14
WHEATON        LGT SNOW  30  28  93 NE15      29.92R WCI  19
MORRIS         LGT SNOW  28  27  93 E22G28    29.85S VSB 3/4 WCI  15
ALEXANDRIA     SNOW      27  24  89 E17G28    29.91S VSB 1/2 WCI  14
ELBOW LAKE     LGT SNOW  27  25  91 E15G28    29.91R VSB 3/4 WCI  16
WADENA         LGT SNOW  25  21  86 E10G22    29.98S WCI  15
GLENWOOD       LGT SNOW  27  27 100 NE21G29   29.89S VSB 3/4 WCI  13
APPLETON       LGT SNOW  30  27  86 E20G29    29.83R VSB 1   WCI  18
BENSON         LGT SNOW  28  27  93 E18G24    29.84F VSB 1   WCI  16
ORTONVILLE     LGT SNOW  28  25  86 E14G23    29.84R WCI  17
MADISON        LGT SNOW  34  30  86 E18G28    29.80S VSB 3/4 WCI  23
WILLMAR        SNOW      30  28  93 E20       29.84F VSB 1/2 WCI  18
$$
MNZ033>034-036-042>043-049>051-058-059-161600-
   Central Minnesota

CITY           SKY/WX    TMP DP  RH WIND       PRES   REMARKS
ST CLOUD       SNOW      29  25  85 E15G21    29.94F VSB 1/2 WCI  18
SAUK CENTRE    LGT SNOW  27  25  92 E20       29.90F VSB 3/4 WCI  14
PAYNESVILLE    SNOW      28  26  92 E15G22    29.89F VSB 1/2 WCI  17
AITKIN         LGT SNOW  28  21  74 E12G17    30.05S WCI  18
PINE RIVER     LGT SNOW  27  21  80 E14       30.07S WCI  15
BRAINERD       LGT SNOW  30  22  72 E13G21    30.02F VSB 3/4 WCI  20
STAPLES        LGT SNOW  25  23  93 E9G17     29.99F VSB 1   WCI  15
LONG PRAIRIE   CLOUDY    27  25  93 NE14G20   29.93F VSB 1/2 WCI  15
LITTLE FALLS   SNOW      28  25  86 E8        29.97F VSB 1/2 WCI  20
LITCHFIELD     SNOW      30  30 100 E18G24    29.87F VSB 1/4 WCI  18
BUFFALO        SNOW      29  27  90 E14       29.94F VSB 1/2 WCI  19
MAPLE LAKE     SNOW      30  29  96 E14       29.93F VSB 1/4 WCI  20
$$
MNZ037-044-045-052-053-161600-
   East Central Minnesota

CITY           SKY/WX    TMP DP  RH WIND       PRES   REMARKS
PRINCETON      SNOW      30  27  86 NE12G20   29.97F VSB 1/2 WCI  21
MORA           LGT SNOW  28  23  80 E10G18    30.03F VSB 3/4 WCI  19
CAMBRIDGE      SNOW      30  23  74 E8        29.97F VSB 1/2 WCI  23
RUSH CITY      MIX PCPN  28  26  91 E10G17    30.03S WCI  19
MOOSE LAKE     LGT SNOW  28  23  80 E7        30.08F VSB 3/4 WCI  21
HINCKLEY       LGT SNOW  28  27  93 E10G17    30.06F VSB 3/4 WCI  19
CLOQUET        LGT SNOW  25  21  86 E10G16    30.11F VSB 3/4 WCI  15
MCGREGOR       CLOUDY    28  23  80 E12G18    30.08F WCI  18
$$
MNZ071>073-080-081-089-090-097-098-161600-
   Southwest Minnesota

CITY           SKY/WX    TMP DP  RH WIND       PRES   REMARKS
MONTEVIDEO     LGT SNOW  30  30 100 SE22G28   29.81S VSB 3/4 WCI  17
GRANITE FALLS  SNOW      31  29  90 E14G24    29.81R VSB 1/4 WCI  21
CANBY          SNOW      32  31  96 E10G16    29.78F VSB 1/2 WCI  23
MARSHALL       CLOUDY    34  27  75 E17       29.74S WCI  23
REDWOOD FALLS  LGT SNOW  35  29  78 E9G22     29.81R WCI  28
OLIVIA         LGT SNOW  34  28  80 E15G25    29.81S VSB 1   WCI  24
PIPESTONE      LGT RAIN  37  34  87 SE12      29.66S
WINDOM         CLOUDY    39  32  75 E10       29.74R
WORTHINGTON    CLOUDY    46  28  49 S17G25    29.72R
JACKSON        CLOUDY    45  30  57 S20G26    29.73R
TRACY          CLOUDY    37  31  77 E12       29.74R
SLAYTON        LGT RAIN  38  32  81 E12       29.70F
$$
MNZ065>067-074>077-082>085-091>093-161600-
   South Central Minnesota

CITY           SKY/WX    TMP DP  RH WIND       PRES   REMARKS
MANKATO        CLOUDY    39  27  60 SE16      29.84F
NEW ULM        CLOUDY    37  27  65 E16G23    29.79F
ST JAMES       CLOUDY    41  28  60 SE15      29.78F
FAIRMONT       CLOUDY    39  27  60 SE20G26   29.78F
GLENCOE        LGT SNOW  36  23  57 E17       29.87F
FARIBAULT      CLOUDY    41  21  45 SE10G16   29.89F
OWATONNA       CLOUDY    39  25  56 SE13G22   29.87R
WASECA         CLOUDY    41  28  60 SE18G24   29.86F
ALBERT LEA     CLOUDY    39  27  60 SE24      29.82F
$$
MNZ078>079-086>088-094>096-161600-
   Southeast Minnesota

CITY           SKY/WX    TMP DP  RH WIND       PRES   REMARKS
ROCHESTER      CLOUDY    38  24  57 SE29      29.89F
RED WING       CLOUDY    37  25  60 E18G25    29.94F
STANTON        CLOUDY    38  22  53 E9G20     29.91S
DODGE CENTER   CLOUDY    39  25  56 SE25G32   29.87F
WINONA         CLOUDY    39  23  52 SE18      29.98F
AUSTIN         CLOUDY    37  27  65 SE14G23   29.86F
PRESTON        CLOUDY    39  25  57 SE20G29   29.94F
$$
ABBREVIATIONS USED IN REMARKS
   TC - TEMPERATURES IN CELSIUS
  WCI - WIND CHILL INDEX
   HX - HEAT INDEX
  VSB - VISIBILITY
$$



USA.gov is the U.S. government's official web portal to all federal, state and local government web resources and services.